This is the latest recevied weather packets stored in our database for station/object AH6GR. If no packets are shown the sender has not sent any weather packets the latest 10 day(s).
| Time | Temp. | Humidity | Pressure | Rain* | Wind** | Luminosity | Snow |
|---|---|---|---|---|---|---|---|
| 1777683625 | 22.78° C | 79% | 1015.8 hPa | 0 mm | - | - | - |
| 1777683025 | 22.22° C | 78% | 1015.8 hPa | 0 mm | - | - | - |
| 1777682733 | 22.22° C | 79% | 1015.1 hPa | 0 mm | - | - | - |
| 1777682425 | 22.78° C | 78% | 1016 hPa | 0 mm | - | - | - |
| 1777681825 | 22.78° C | 78% | 1016 hPa | 0 mm | - | - | - |
| 1777681805 | 22.22° C | 78% | 1015.2 hPa | 0 mm | - | - | - |
| 1777681225 | 22.22° C | 79% | 1016.1 hPa | 0 mm | - | - | - |
| 1777680992 | 22.22° C | 79% | 1015.4 hPa | 0 mm | - | - | - |
| 1777680625 | 22.78° C | 77% | 1016.3 hPa | 0 mm | - | - | - |
| 1777680025 | 22.78° C | 80% | 1016.3 hPa | 0 mm | - | - | - |
| 1777680024 | 22.22° C | 80% | 1015.5 hPa | 0 mm | - | - | - |
| 1777679425 | 22.78° C | 79% | 1016.4 hPa | 0 mm | - | - | - |
| 1777679161 | 22.22° C | 79% | 1015.6 hPa | 0 mm | - | - | - |
| 1777678825 | 22.22° C | 81% | 1016.5 hPa | 0 mm | - | - | - |
| 1777678242 | 22.22° C | 81% | 1015.9 hPa | 0 mm | - | - | - |
| 1777678225 | 22.22° C | 81% | 1016.7 hPa | 0 mm | - | - | - |
| 1777677625 | 22.22° C | 81% | 1016.9 hPa | 0 mm | - | - | - |
| 1777677314 | 21.67° C | 80% | 1016.1 hPa | 0 mm | - | - | - |
| 1777677025 | 22.22° C | 81% | 1017.1 hPa | 0 mm | - | - | - |
| 1777676469 | 21.67° C | 82% | 1016.4 hPa | 0 mm | - | - | - |
| 1777676425 | 22.22° C | 80% | 1017.2 hPa | 0 mm | - | - | - |
| 1777675825 | 22.22° C | 82% | 1017.3 hPa | 0 mm | - | - | - |
| 1777675553 | 21.67° C | 84% | 1016.6 hPa | 0 mm | - | - | - |
| 1777675224 | 21.67° C | 84% | 1017.5 hPa | 0 mm | - | - | - |
| 1777674625 | 22.22° C | 84% | 1017.5 hPa | 0 mm | - | - | - |
* Rain latest hour (hover to see other rain measurements)
** Current wind speed in m/s (hover to see current wind gust speed)